Location: De Greiden
(52.9496°N, 5.9137°E)
Time: 23:34:38
(UTC+00:00)

SKYMED 3 - Pass Details

Date: 24 January 2021
Orbit: 621 x 623 km, 97.9° (Epoch: 01 March)

Event Time Altitude Azimuth Distance (km) Brightness Sun altitude
Exits shadow 17:54:30 - 15° (NNE) 2,670 7.6 -16.0°
Reaches altitude 10° 17:56:06 10° 16° (NNE) 2,007 6.9 -16.2°
Maximum altitude 18:00:29 84° 106° (ESE) 634 4.5 -16.8°
Drops below altitude 10° 18:04:49 10° 194° (SSW) 1,990 7.4 -17.5°
Sets 18:07:00 0° 195° (SSW) 2,891 8.3 -17.8°
